Regional Weather Roundup
Issued by NWS

Home | Current Version | Previous Version | Graphics & Text | Print | Product List | Glossary On
Versions: 1 2 3 4 5 6 7 8 9 10 11 12 13 14 15 16 17 18 19 20 21 22 23 24 25 26 27 28 29 30 31 32 33 34 35 36 37 38 39 40 41 42 43 44 45 46 47 48 49 50
000
ASUS43 KBIS 271020
RWRND

NORTH DAKOTA REGIONAL WEATHER ROUNDUP
NATIONAL WEATHER SERVICE BISMARCK ND
500 AM CDT MON APR 27 2015

NOTE: "FAIR" INDICATES FEW OR NO CLOUDS BELOW 12,000 FEET WITH NO
SIGNIFICANT WEATHER AND/OR OBSTRUCTIONS TO VISIBILITY.


NDZ001>003-009>011-017-271100-
NORTHWEST NORTH DAKOTA

CITY           SKY/WX    TMP DP  RH WIND       PRES   REMARKS
WILLISTON      LGT RAIN  41  38  89 N3        30.26R
MINOT          LGT RAIN  41  38  89 NW9       30.22R
MINOT AFB      LGT RAIN  41  41 100 NW7       30.21S
$$

NDZ018>021-031>035-040>046-271100-
SOUTHWEST NORTH DAKOTA

CITY           SKY/WX    TMP DP  RH WIND       PRES   REMARKS
BISMARCK       CLOUDY    41  40  96 CALM      30.18S FOG
DICKINSON      LGT RAIN  42  40  92 NW10      30.19S
GARRISON         N/A     43  40  89 N8        30.20R
HETTINGER ARPT CLOUDY    43  41  93 N10       30.20S
$$

NDZ004>008-012>016-024-026-027-054-271100-
NORTHEAST NORTH DAKOTA

CITY           SKY/WX    TMP DP  RH WIND       PRES   REMARKS
GRAND FORKS    MOCLDY    35  27  72 SW5       30.17S
GRND FRKS AFB  MOCLDY    35  32  87 CALM      30.18R
DEVILS LAKE    CLOUDY    43  39  87 CALM      30.19R VSB 1/2
$$

NDZ022-023-025-028>030-036>039-047>053-271100-
SOUTHEAST NORTH DAKOTA

CITY           SKY/WX    TMP DP  RH WIND       PRES   REMARKS
FARGO          PTCLDY    40  23  50 S3        30.19S
JAMESTOWN      MOCLDY    39  31  72 SW5       30.18R
$$




USA.gov is the U.S. government's official web portal to all federal, state and local government web resources and services.